{"data":{"norad_id":65255,"intl_designator":"2025-179W","name":"STARLINK-34987","alt_names":[],"object_type":"PAYLOAD","status":"ACTIVE","operator":null,"country":"US","launch_date":"2025-08-18","launch_site_code":"AFWTR","launch_vehicle":null,"mission":null,"orbit_class":"UNKNOWN","rcs_meters":null,"size_class":null,"mass_kg":null,"dimensions":null,"purposes":["comms"],"wikipedia_slug":null,"has_3d_model":false,"image_url":null,"decayed_at":null,"tle_current":{"epoch":"2026-09-20T20:02:31.585056Z","epoch_age_seconds":88576,"freshness":"FRESH","line1":"1 65255U 25179W   26263.83508779  .00010147  00000+0  31618-3 0  9997","line2":"2 65255  97.2843 303.1429 0000872 107.5705 252.5633 15.33448308 61352","mean_motion":15.33448308,"eccentricity":8.72e-5,"inclination_deg":97.2843,"raan_deg":303.1429,"arg_perigee_deg":107.5705,"mean_anomaly_deg":252.5633,"bstar":0.00031618,"rev_number":6135,"period_min":93.906002079595,"perigee_km":464.93656416223,"apogee_km":466.13010026817,"semimajor_km":6843.6703322152,"source":"CELESTRAK","updated_at":"2026-09-21T09:00:35.562018Z"}}}